This demonstration page uses our WeatherBlox Daily Observations layout. Learn more.

41.55636, -103.73856

Hourly Observations for July 27, 2019

Temp ( °F °C ) Dew Point ( °F °C ) Humidity (%) Winds ( mph kmh ) Pressure ( in mb ) Visibility ( mi km ) Precip ( " mm )
12:53 am 00:53 Clear 73 22.8 65 18.3 76 76 Calm 29.94 1014 10 16.09344 0 0
1:53 am 01:53 Clear 71 21.7 64 17.8 79 79 Calm 29.94 1014 10 16.09344 0 0
2:53 am 02:53 Clear 69 20.6 67 19.4 93 93 ESE 3 6 29.94 1014 10 16.09344 0 0
3:53 am 03:53 Clear 69 20.6 66 18.9 90 90 Calm 29.94 1014 10 16.09344 0 0
4:53 am 04:53 Clear 69 20.6 66 18.9 90 90 Calm 29.94 1014 10 16.09344 0 0
5:53 am 05:53 Mostly Cloudy 68 20 66 18.9 93 93 NNE 5 7 29.94 1014 10 16.09344 0 0
6:53 am 06:53 Cloudy with Light Rain 69 20.6 67 19.4 93 93 Calm 29.97 1015 8 12.874752 0.001 0.001
7:05 am 07:05 Cloudy with Nearby Thunderstorms 70 21.1 67 19.4 90 90 E 3 6 29.94 1014 10 16.09344 0.001 0.001
7:43 am 07:43 Sunny 70 21.1 66 18.9 87 87 ENE 5 7 29.94 1014 10 16.09344 0.001 0.001
7:53 am 07:53 Sunny 72 22.2 66 18.9 82 82 E 5 7 29.97 1015 10 16.09344 0.001 0.001
8:53 am 08:53 Mostly Cloudy 74 23.3 64 17.8 71 71 SW 8 13 29.97 1015 10 16.09344 0 0
9:53 am 09:53 Cloudy 75 23.9 64 17.8 69 69 E 3 6 29.97 1015 10 16.09344 0 0
10:53 am 10:53 Mostly Cloudy 76 24.4 64 17.8 67 67 Calm 30 1016 10 16.09344 0 0
11:53 am 11:53 Mostly Cloudy 80 26.7 65 18.3 60 60 NNE 6 9 29.97 1015 10 16.09344 0 0
12:53 pm 12:53 Mostly Cloudy 81 27.2 63 17.2 54 54 SSE 7 11 29.97 1015 10 16.09344 0 0
1:53 pm 13:53 Mostly Cloudy 83 28.3 62 16.7 49 49 SSE 9 15 29.94 1014 10 16.09344 0 0
2:53 pm 14:53 Sunny 85 29.4 63 17.2 48 48 E 8 13 29.91 1013 10 16.09344 0 0
3:53 pm 15:53 Sunny 87 30.6 61 16.1 42 42 E 9 15 29.88 1012 10 16.09344 0 0
4:53 pm 16:53 Mostly Cloudy 83 28.3 64 17.8 53 53 E 5 7 29.88 1012 10 16.09344 0 0
5:31 pm 17:31 Cloudy with Nearby Thunderstorms 74 23.3 61 16.1 64 64 WNW 20 31 29.85 1011 10 16.09344 0.001 0.001
5:36 pm 17:36 Cloudy with Light Thunderstorms 73 23 63 17 69 69 WNW 17 28 29.88 1012 10 16.09344 0 0
5:53 pm 17:53 Cloudy with Thunderstorms 67 19.4 64 17.8 91 91 W 24 39 29.94 1014 2 3.218688 0.02 0.508
5:57 pm 17:57 Cloudy with Heavy Thunderstorms 66 18.9 64 17.8 93 93 WSW 21 33 29.91 1013 0.75 1.207008 0.08 2.032
6:08 pm 18:08 Cloudy with Light Thunderstorms 66 19 64 18 94 94 W 7 11 29.91 1013 2 3.218688 0 0
6:16 pm 18:16 Cloudy with Light Thunderstorms 68 20 64 18 88 88 NNW 6 9 29.91 1013 9 14.484096 0 0
6:32 pm 18:32 Cloudy with Nearby Thunderstorms 68 20 64 18 88 88 NE 7 11 29.91 1013 8 12.874752 0 0
6:53 pm 18:53 Partly Cloudy with Nearby Thunderstorms 70 21.1 66 18.9 87 87 E 7 11 29.91 1013 10 16.09344 0.27 6.858
7:05 pm 19:05 Mostly Sunny 71 21.7 66 18.9 84 84 ESE 5 7 29.85 1011 10 16.09344 0 0
7:53 pm 19:53 Sunny 67 19.4 65 18.3 93 93 ESE 8 13 29.91 1013 10 16.09344 0 0
8:53 pm 20:53 Clear 67 19.4 65 18.3 93 93 SSW 3 6 29.91 1013 10 16.09344 0 0
9:53 pm 21:53 Partly Cloudy 66 18.9 65 18.3 96 96 S 6 9 29.94 1014 10 16.09344 0 0
10:53 pm 22:53 Clear 67 19.4 64 17.8 91 91 Calm 29.91 1013 10 16.09344 0 0
11:53 pm 23:53 Clear 66 18.9 65 18.3 96 96 Calm 29.88 1012 10 16.09344 0 0

Powered by AerisWeather